Effective Sunday, March 17, 2024, the National Weather Service National Data Buoy Center will discontinue its Dial-A-Buoy Interactive Voice Response system. For more information, see Service Change Notice 24-06 (PDF).

Station ANPT2 - 8775241 - Aransas, Aransas Pass, TX Image indicating link to RSS feed of recent meteorological observations for station ANPT2


Conditions at ANPT2 as of
(6:00 am CST)
1200 GMT on 02/23/2024:
     

Click on the graph icon in the table below to see a time series plot of the last five days of that observation.

5-day plot - Wind Direction Wind Direction (WDIR): NW ( 320 deg true )
5-day plot - Wind Speed Wind Speed (WSPD): 13.0 kts
5-day plot - Wind Gust Wind Gust (GST): 15.0 kts
5-day plot - Atmospheric Pressure Atmospheric Pressure (PRES):29.95 in
5-day plot - Pressure Tendency Pressure Tendency (PTDY):+0.04 in ( Rising )
5-day plot - Air Temperature Air Temperature (ATMP): 64.0 °F
5-day plot - Water Temperature Water Temperature (WTMP): 60.4 °F
5-day plot - Wind Speed at 10 Meters Wind Speed at 10 meters (WSPD10M): 15.5 kts
5-day plot - Wind Speed at 20 Meters Wind Speed at 20 meters (WSPD20M): 15.5 kts
5-day plot -  Wind Speed, Wind Gust and Atmospheric Pressure Combined plot of Wind Speed, Gust, and Air Pressure
Previous observations
TIME
(CST)
5-day plot - Wind Direction
WDIR
 
5-day plot - Wind Speed
WSPD
kts
5-day plot - Wind Gust
GST
kts
5-day plot - Wave Height
WVHT
ft
5-day plot - Dominant Wave Period
DPD
sec
5-day plot - Average Wave Period
APD
sec
5-day plot - Mean Wave Direction
MWD
 
5-day plot - Atmospheric Pressure
PRES
in
5-day plot - Pressure Tendency
PTDY
in
5-day plot - Air Temperature
ATMP
°F
5-day plot - Water Temperature
WTMP
°F
5-day plot - Dew Point
DEWP
°F
5-day plot - Salinity
SAL
psu
5-day plot - Visibility
VIS
nmi
5-day plot - Tide (above MLLW)
TIDE
ft
2024-02-23 05:54 am NW 9.9 11.1----29.94- 63.3 60.4----
2024-02-23 05:48 am NW 9.9 12.0----29.94- 63.5 60.4----
2024-02-23 05:42 amNNW 11.1 13.0----29.94- 64.0 60.4----
2024-02-23 05:36 amNNW 12.0 14.0----29.93- 64.8 60.4----
2024-02-23 05:30 am NW 12.0 14.0----29.93- 64.9 60.4----
2024-02-23 05:24 am NW 11.1 13.0----29.93- 64.6 60.4----
2024-02-23 05:18 am NW 9.9 13.0----29.93- 63.7 60.4----
2024-02-23 05:12 am NW 12.0 14.0----29.93- 64.8 60.4----
2024-02-23 05:06 am NW 9.9 13.0----29.92- 64.9 60.4----
2024-02-23 05:00 amWNW 8.9 9.9----29.92+0.04 63.5 60.4----
2024-02-23 04:54 am NW 8.9 9.9----29.91- 63.7 60.4----
2024-02-23 04:48 am NW 8.9 9.9----29.91- 63.9 60.4----
2024-02-23 04:42 amWNW 8.0 8.9----29.91- 63.5 60.4----
2024-02-23 04:36 amWNW 8.9 9.9----29.91- 63.3 60.3----
2024-02-23 04:30 amWNW 8.9 8.9----29.90- 63.1 60.3----
2024-02-23 04:24 amWNW 8.9 9.9----29.90- 63.1 60.3----
2024-02-23 04:18 amWNW 9.9 11.1----29.90- 63.7 60.3----
2024-02-23 04:12 amWNW 9.9 11.1----29.91- 63.9 60.3----
2024-02-23 04:06 amWNW 8.9 9.9----29.91- 63.9 60.3----
2024-02-23 04:00 amWNW 9.9 12.0----29.91+0.04 64.2 60.3----
2024-02-23 03:54 amWNW 11.1 12.0----29.91- 64.6 60.3----
2024-02-23 03:48 amWNW 11.1 12.0----29.91- 63.9 60.3----
2024-02-23 03:42 am W 12.0 13.0----29.92- 62.6 60.3----
2024-02-23 03:36 am W 8.9 9.9----29.92- 63.0 60.3----
2024-02-23 03:30 am W 8.9 9.9----29.91- 63.0 60.3----
2024-02-23 03:24 amWNW 8.9 9.9----29.92- 62.8 60.1----
2024-02-23 03:18 amWNW 8.9 11.1----29.91- 62.8 60.1----
2024-02-23 03:12 amWNW 8.9 9.9----29.91- 62.8 59.9----
2024-02-23 03:06 amWNW 8.9 11.1----29.91- 62.6 59.9----
2024-02-23 03:00 amWNW 9.9 11.1----29.91+0.04 62.4 60.1----
2024-02-23 02:54 amWNW 9.9 11.1----29.91- 62.1 60.1----
2024-02-23 02:48 amWNW 8.9 12.0----29.90- 62.1 60.1----
2024-02-23 02:42 amWNW 11.1 13.0----29.90- 61.9 60.1----
2024-02-23 02:36 amWNW 12.0 14.0----29.90- 62.1 60.1----
2024-02-23 02:30 amWNW 11.1 15.0----29.89- 62.4 60.1----
2024-02-23 02:24 amWNW 12.0 15.0----29.90- 62.6 60.1----
2024-02-23 02:18 amWNW 12.0 13.0----29.90- 62.8 60.1----
2024-02-23 02:12 amWNW 8.9 9.9----29.89- 63.1 60.1----
2024-02-23 02:06 am W 6.0 8.0----29.88- 63.7 60.1----
2024-02-23 02:00 am W 5.1 5.1----29.88+0.03 63.1 60.1----
2024-02-23 01:54 am W 4.1 5.1----29.88- 63.5 60.1----
2024-02-23 01:48 amWSW 4.1 4.1----29.88- 63.7 60.1----
2024-02-23 01:42 amWSW 4.1 5.1----29.88- 63.9 60.1----
2024-02-23 01:36 amWSW 4.1 4.1----29.87- 63.9 60.1----
2024-02-23 01:30 am SW 2.9 5.1----29.88- 63.5 60.1----
2024-02-23 01:24 am SW 5.1 6.0----29.88- 64.2 60.1----
2024-02-23 01:18 amSSW 5.1 6.0----29.88- 64.2 60.1----
2024-02-23 01:12 amSSW 4.1 5.1----29.88- 64.2 60.1----
2024-02-23 01:06 am S 4.1 5.1----29.87- 64.4 60.1----
2024-02-23 01:00 am S 4.1 5.1----29.87+0.02 64.2 60.1----
2024-02-23 12:54 am S 2.9 4.1----29.87- 64.0 60.1----
2024-02-23 12:48 am S 4.1 5.1----29.87- 64.2 60.1----
2024-02-23 12:42 am S 5.1 5.1----29.87- 64.2 60.1----
2024-02-23 12:36 am S 5.1 5.1----29.87- 64.2 60.1----
2024-02-23 12:30 am S 5.1 6.0----29.86- 64.0 60.1----
2024-02-23 12:24 amSSE 5.1 6.0----29.86- 64.0 60.1----
2024-02-23 12:18 amSSE 6.0 6.0----29.86- 64.0 60.1----
2024-02-23 12:12 amSSE 6.0 6.0----29.86- 64.2 60.1----
2024-02-23 12:06 amSSE 6.0 6.0----29.86- 64.2 60.1----
2024-02-23 12:00 amSSE 6.0 6.0----29.86+0.01 64.0 60.1----
2024-02-22 11:54 pmSSE 6.0 6.0----29.86- 64.0 60.1----
2024-02-22 11:48 pmSSE 6.0 7.0----29.86- 64.0 60.1----
2024-02-22 11:42 pmSSE 6.0 7.0----29.86- 64.2 60.1----
2024-02-22 11:36 pmSSE 7.0 7.0----29.86- 64.2 60.1----
2024-02-22 11:30 pmSSE 7.0 7.0----29.86- 64.2 60.1----
2024-02-22 11:24 pm SE 7.0 8.0----29.86- 64.4 60.1----
2024-02-22 11:18 pm SE 7.0 8.0----29.86- 64.4 60.1----
2024-02-22 11:12 pm SE 7.0 8.0----29.86- 64.2 60.1----
2024-02-22 11:06 pm SE 6.0 8.9----29.86- 64.4 60.1----
2024-02-22 11:00 pm SE 8.0 8.9----29.85+0.04 64.6 60.1----
2024-02-22 10:54 pm SE 8.0 8.9----29.86- 64.4 60.1----
2024-02-22 10:48 pm SE 8.0 8.9----29.85- 64.2 60.1----
2024-02-22 10:42 pm SE 8.0 8.9----29.86- 64.4 60.1----
2024-02-22 10:36 pm SE 8.0 8.9----29.86- 64.4 60.1----
2024-02-22 10:30 pmESE 7.0 8.0----29.86- 64.4 60.1----
2024-02-22 10:24 pmESE 7.0 8.0----29.86- 64.4 60.1----
2024-02-22 10:18 pmESE 7.0 8.0----29.85- 64.4 60.1----
2024-02-22 10:12 pmESE 7.0 7.0----29.85- 64.2 60.1----
2024-02-22 10:06 pmESE 6.0 7.0----29.85- 64.2 60.1----
2024-02-22 10:00 pmESE 6.0 8.0----29.85+0.04 64.2 60.1----
2024-02-22 09:54 pm SE 7.0 7.0----29.85- 64.4 60.1----
2024-02-22 09:48 pm SE 6.0 7.0----29.85- 64.4 60.1----
2024-02-22 09:42 pm SE 6.0 8.0----29.85- 64.4 60.1----
2024-02-22 09:36 pm SE 7.0 8.0----29.85- 64.4 60.1----
2024-02-22 09:30 pm SE 7.0 8.0----29.85- 64.4 60.1----
2024-02-22 09:24 pm SE 7.0 8.0----29.85- 64.6 60.3----
2024-02-22 09:18 pm SE 7.0 8.0----29.85- 64.6 60.1----
2024-02-22 09:12 pmESE 7.0 7.0----29.85- 64.4 60.1----
2024-02-22 09:06 pmESE 7.0 8.9----29.85- 64.8 60.3----
2024-02-22 09:00 pmESE 6.0 7.0----29.85+0.04 64.8 60.3----
2024-02-22 08:54 pmESE 7.0 8.0----29.84- 64.8 60.3----
2024-02-22 08:48 pmESE 7.0 8.0----29.84- 64.9 60.4----
2024-02-22 08:42 pmESE 7.0 8.0----29.84- 64.9 60.3----
2024-02-22 08:36 pmESE 8.0 8.0----29.83- 64.9 60.3----
2024-02-22 08:30 pmESE 7.0 8.0----29.83- 65.1 60.1----
2024-02-22 08:24 pmESE 8.0 8.9----29.83- 65.1 60.1----
2024-02-22 08:18 pmESE 8.9 8.9----29.82- 65.3 60.1----
2024-02-22 08:12 pmESE 8.9 9.9----29.82- 65.3 60.1----
2024-02-22 08:06 pmESE 8.9 9.9----29.82- 65.3 60.1----
2024-02-22 08:00 pmESE 8.9 9.9----29.82+0.02 65.3 60.3----
2024-02-22 07:54 pmESE 8.9 9.9----29.82- 65.5 60.3----
2024-02-22 07:48 pmESE 8.9 9.9----29.82- 65.5 60.1----
2024-02-22 07:42 pmESE 8.0 8.9----29.82- 65.5 60.1----
2024-02-22 07:36 pmESE 8.0 11.1----29.82- 66.0 60.1----
2024-02-22 07:30 pmESE 8.0 8.9----29.81- 65.5 60.4----
2024-02-22 07:24 pmESE 8.9 9.9----29.81- 65.7 60.4----
2024-02-22 07:18 pmESE 8.9 9.9----29.81- 65.5 60.4----
2024-02-22 07:12 pmESE 8.9 8.9----29.82- 65.8 60.4----
2024-02-22 07:06 pmESE 8.9 9.9----29.81- 65.8 60.4----
2024-02-22 07:00 pmESE 8.9 9.9----29.81+0.01 66.0 60.4----
2024-02-22 06:54 pmESE 8.9 9.9----29.81- 66.2 60.4----
2024-02-22 06:48 pmESE 9.9 9.9----29.80- 66.4 60.3----
2024-02-22 06:42 pmESE 8.9 9.9----29.80- 66.2 60.3----
2024-02-22 06:36 pmESE 8.9 8.9----29.80- 66.2 60.3----
2024-02-22 06:30 pmESE 8.0 8.0----29.81- 66.0 60.3----
2024-02-22 06:24 pmESE 8.0 8.9----29.81- 66.2 60.3----
2024-02-22 06:18 pmESE 7.0 8.0----29.81- 66.0 60.4----
2024-02-22 06:12 pmESE 7.0 8.0----29.81- 66.0 60.4----
2024-02-22 06:06 pmESE 7.0 8.0----29.81- 66.4 60.4----
2024-02-22 06:00 pmESE 8.0 8.0----29.80+0.00 66.6 60.4----
2024-02-22 05:54 pmESE 8.0 8.0----29.80- 66.6 60.6----
2024-02-22 05:48 pmESE 8.0 8.0----29.80- 66.4 60.8----
2024-02-22 05:42 pmESE 8.0 8.0----29.80- 66.2 60.8----
2024-02-22 05:36 pmESE 8.0 8.0----29.80- 66.4 60.8----
2024-02-22 05:30 pmESE 7.0 7.0----29.80-- 60.8----
2024-02-22 05:24 pm E 7.0 8.0----29.80-- 60.8----
2024-02-22 05:18 pm E 7.0 8.0----29.80- 66.7 60.8----
2024-02-22 05:12 pm E 7.0 8.0----29.80- 66.9 61.2----
2024-02-22 05:00 pmESE 8.0 8.0----29.80-0.04- 61.3----
2024-02-22 04:54 pmESE 8.0 8.9----29.80-- 61.2----
2024-02-22 04:48 pmESE 8.9 9.9----29.79- 67.3 61.2----
2024-02-22 04:42 pmESE 8.9 8.9----29.79- 66.6 61.3----
2024-02-22 04:36 pmESE 8.0 8.9----29.80- 66.6 61.2----
2024-02-22 04:30 pmESE 8.0 8.0----29.80- 66.4 61.0----
2024-02-22 04:24 pmESE 7.0 8.0----29.79- 66.2 61.0----
2024-02-22 04:18 pmESE 8.0 8.0----29.79- 66.4 61.2----
2024-02-22 04:12 pmESE 8.0 8.0----29.79- 66.4 61.0----
2024-02-22 04:06 pmESE 8.0 8.0----29.80- 66.2 61.0----
2024-02-22 04:00 pmESE 7.0 8.0----29.80-0.07 66.2 61.0----
2024-02-22 03:54 pm E 7.0 7.0----29.80- 66.0 60.6----
2024-02-22 03:48 pm E 7.0 8.0----29.80- 66.2 60.8----
2024-02-22 03:42 pm E 7.0 8.0----29.80- 66.2 61.0----
2024-02-22 03:36 pm E 7.0 7.0----29.80- 66.0 61.0----
2024-02-22 03:30 pm E 7.0 7.0----29.80- 65.8 60.8----
2024-02-22 03:24 pm E 6.0 7.0----29.81- 65.8 60.8----
2024-02-22 03:18 pm E 7.0 7.0----29.80- 65.8 60.6----
2024-02-22 03:12 pm E 7.0 7.0----29.80- 65.8 60.8----
2024-02-22 03:06 pm E 7.0 8.0----29.80- 65.7 61.0----
2024-02-22 03:00 pm E 6.0 6.0----29.81-0.07 65.8 61.0----
2024-02-22 02:54 pm E 5.1 6.0----29.81- 65.8 60.8----
2024-02-22 02:48 pm E 5.1 5.1----29.82- 65.8 60.8----
2024-02-22 02:42 pm E 5.1 6.0----29.82- 65.5 61.0----
2024-02-22 02:36 pm E 5.1 5.1----29.82- 65.5 61.2----
2024-02-22 02:30 pm E 5.1 5.1----29.82- 65.5 61.2----
2024-02-22 02:24 pm E 6.0 6.0----29.82- 65.5 61.5----
2024-02-22 02:18 pm E 5.1 5.1----29.83- 65.3 61.5----
2024-02-22 02:12 pm E 4.1 4.1----29.83- 65.1 61.7----
2024-02-22 02:06 pmENE 2.9 4.1----29.83- 64.9 61.7----
2024-02-22 02:00 pm E 2.9 6.0----29.84-0.04 64.9 61.7----
2024-02-22 01:54 pm E 6.0 6.0----29.83- 65.1 61.7----
2024-02-22 01:48 pm E 5.1 5.1----29.84- 64.9 62.1----
2024-02-22 01:42 pm E 4.1 5.1----29.84- 64.8 62.1----
2024-02-22 01:36 pm E 5.1 6.0----29.85- 64.8 61.9----
2024-02-22 01:30 pm E 5.1 6.0----29.85- 64.8 61.7----
2024-02-22 01:24 pmESE 6.0 7.0----29.85- 64.6 61.9----
2024-02-22 01:18 pmESE 6.0 7.0----29.85- 64.6 61.9----
2024-02-22 01:12 pmESE 6.0 7.0----29.85- 64.6 61.9----
2024-02-22 01:06 pmESE 6.0 6.0----29.86- 64.6 61.9----
2024-02-22 01:00 pmESE 5.1 6.0----29.86-0.03 64.6 61.9----
2024-02-22 12:54 pmESE 2.9 4.1----29.87- 64.4 61.9----
2024-02-22 12:48 pmESE 2.9 4.1----29.87- 64.6 61.9----
2024-02-22 12:42 pm SE 2.9 6.0----29.87- 64.6 61.9----
2024-02-22 12:36 pm SE 2.9 4.1----29.87- 64.6 61.9----
2024-02-22 12:30 pm SE 2.9 5.1----29.88- 64.6 61.9----
2024-02-22 12:24 pm SE 4.1 5.1----29.88- 64.6 61.9----
2024-02-22 12:18 pm SE 4.1 5.1----29.88- 64.6 61.9----
2024-02-22 12:12 pmSSE 4.1 5.1----29.88- 64.6 61.9----
2024-02-22 12:06 pmSSE 4.1 6.0----29.88- 64.6 61.9----
2024-02-22 12:00 pmSSE 5.1 6.0----29.88-0.04 64.6 61.9----
2024-02-22 11:54 amSSE 5.1 8.0----29.88- 64.8 61.9----
2024-02-22 11:48 am SE 7.0 8.9----29.88- 64.9 61.9----
2024-02-22 11:42 am SE 8.0 9.9----29.88- 64.8 61.9----
2024-02-22 11:36 amESE 8.9 9.9----29.88- 64.8 61.9----
2024-02-22 11:30 amESE 8.9 11.1----29.88- 64.8 61.9----
2024-02-22 11:24 amESE 8.9 11.1----29.88- 64.8 61.9----
2024-02-22 11:18 amESE 8.9 11.1----29.88- 64.8 61.7----
2024-02-22 11:12 amESE 8.9 12.0----29.88- 64.8 61.7----
2024-02-22 11:06 amESE 9.9 13.0----29.88- 64.6 61.7----
2024-02-22 11:00 amESE 12.0 12.0----29.87-0.02 64.6 61.7----
2024-02-22 10:54 amESE 11.1 12.0----29.87- 64.6 61.5----
2024-02-22 10:48 amESE 9.9 12.0----29.88- 64.8 61.5----
2024-02-22 10:42 amESE 9.9 12.0----29.88- 64.8 61.5----
2024-02-22 10:36 amESE 11.1 12.0----29.89- 64.9 61.5----
2024-02-22 10:30 amESE 9.9 12.0----29.88- 64.9 61.3----
2024-02-22 10:24 amESE 12.0 15.0----29.88- 64.9 61.3----
2024-02-22 10:18 amESE 14.0 15.0----29.87- 64.8 61.3----
2024-02-22 10:12 am E 13.0 14.0----29.88- 64.4 61.3----
2024-02-22 10:06 am E 13.0 14.0----29.88- 64.4 61.3----
2024-02-22 10:00 amESE 12.0 12.0----29.89+0.02 64.8 61.3----
2024-02-22 09:54 am E 9.9 11.1----29.90- 64.4 61.3----
2024-02-22 09:48 am E 8.9 9.9----29.90-------
2024-02-22 09:42 am E 8.0 8.9----29.91-------
2024-02-22 09:36 am E 6.0 7.0----29.91-------
2024-02-22 09:30 am E 4.1 5.1----29.91- 63.9 61.2----
2024-02-22 09:24 am E 4.1 4.1----29.91- 64.0 61.2----
2024-02-22 09:18 am E 1.9 2.9----29.92- 64.0 61.2----
2024-02-22 09:12 am- 0.0 1.9----29.92- 64.0 61.0----
2024-02-22 09:06 amESE 1.9 2.9----29.92- 64.0 61.0----
2024-02-22 09:00 amESE 4.1 5.1----29.92+0.06 64.2 61.0----
2024-02-22 08:54 amESE 5.1 6.0----29.91- 64.2 61.0----
2024-02-22 08:48 amESE 6.0 7.0----29.91- 64.2 61.0----
2024-02-22 08:42 am SE 6.0 8.0----29.91- 64.4 61.0----
2024-02-22 08:36 am SE 7.0 7.0----29.91- 64.2 61.0----
2024-02-22 08:30 am SE 5.1 5.1----29.91- 64.0 61.0----
2024-02-22 08:24 amSSE 2.9 5.1----29.91- 64.0 61.0----
2024-02-22 08:18 am S 5.1 7.0----29.91- 64.0 61.0----
2024-02-22 08:12 amSSE 6.0 8.0----29.90- 63.9 61.0----
2024-02-22 08:06 amSSE 7.0 7.0----29.89- 63.7 61.0----
2024-02-22 08:00 amSSE 7.0 8.0----29.90+0.03 63.7 61.0----
2024-02-22 07:54 amSSE 7.0 8.0----29.89- 63.7 61.2----
2024-02-22 07:48 amSSE 8.0 8.9----29.88- 63.7 61.2----
2024-02-22 07:42 amSSE 8.9 9.9----29.88- 63.5 61.2----
2024-02-22 07:36 amSSE 8.9 9.9----29.88- 63.5 61.0----
2024-02-22 07:30 amSSE 8.9 9.9----29.88- 63.5 61.2----
2024-02-22 07:24 am SE 8.9 9.9----29.87- 63.7 61.2----
2024-02-22 07:18 am SE 9.9 9.9----29.87- 63.9 61.2----
2024-02-22 07:12 am SE 8.0 9.9----29.87- 63.9 61.3----
2024-02-22 07:06 am SE 8.9 9.9----29.87- 63.9 61.3----
2024-02-22 07:00 am SE 7.0 8.9----29.87+0.00 63.9 61.3----
2024-02-22 06:54 am SE 8.0 11.1----29.87- 63.9 61.3----
2024-02-22 06:48 am SE 9.9 11.1----29.86- 64.0 61.3----
2024-02-22 06:42 am SE 9.9 12.0----29.86- 63.9 61.3----
2024-02-22 06:36 am SE 11.1 12.0----29.86- 64.0 61.3----
2024-02-22 06:30 am SE 11.1 13.0----29.86- 64.0 61.3----
2024-02-22 06:24 am SE 12.0 14.0----29.86- 63.9 61.5----
2024-02-22 06:18 am SE 12.0 14.0----29.85- 64.0 61.5----
2024-02-22 06:12 am SE 12.0 13.0----29.85- 64.0 61.5----
2024-02-22 06:06 am SE 13.0 14.0----29.85- 64.0 61.5----
2024-02-22 06:00 am SE 12.0 14.0----29.85-0.04 64.0 61.5----
2024-02-22 05:54 am SE 11.1 12.0----29.86- 63.7 61.5----